GFSSE_sfc_30mbdewp_276.txt.gz
Dewpoint
59 63 70 70 70 71 71 72 72 72 70 70 71 71 70 70 69 70 70 70 70 69 69 68 69 69 67 65 66 67 67 68 68 67 68 68 68 68 68 66 65 60 66
61 63 70 70 70 71 71 71 72 72 71 71 71 71 71 70 70 70 70 69 68 69 69 67 67 67 67 69 69 68 66 65 64 65 66 67 67 67 67 67 68 64 66
62 63 66 70 70 71 71 71 71 71 71 71 71 71 70 70 69 69 69 68 67 67 68 67 66 66 68 69 69 69 69 69 69 67 64 52 53 65 66 66 66 68 67
62 63 64 69 70 71 71 71 71 71 71 71 70 70 70 69 69 68 68 67 66 65 66 67 66 66 68 68 68 67 66 66 66 66 56 54 53 65 65 65 67 68 67
62 62 67 70 70 70 70 70 70 70 70 70 70 69 69 69 69 68 67 67 65 63 65 66 66 67 66 65 65 65 64 63 61 59 52 55 54 64 66 66 64 67 67
62 62 69 70 70 70 70 70 69 69 70 70 70 70 69 69 68 68 67 67 64 63 63 66 66 66 65 65 65 63 60 60 60 53 54 56 55 64 65 65 65 65 67
63 64 67 70 70 70 70 70 69 69 69 70 70 70 69 69 68 68 68 68 67 65 65 64 65 65 65 64 63 59 59 59 57 55 58 59 58 63 66 65 67 66 66
64 64 66 70 70 70 69 69 69 69 69 69 69 69 69 69 69 68 68 69 68 66 65 64 64 63 62 60 58 59 60 61 57 55 57 58 62 62 64 66 67 67 67
65 65 65 65 68 69 68 68 68 68 69 69 69 69 68 68 69 69 68 68 68 67 65 64 62 61 61 60 59 60 62 63 57 54 56 57 61 63 63 63 67 67 67
66 67 67 66 65 65 66 68 68 68 68 68 68 68 68 67 67 68 67 68 67 66 65 64 63 61 61 60 60 61 62 61 55 51 52 56 58 63 65 65 65 67 68
65 66 67 67 67 67 66 67 67 68 68 67 67 67 66 61 62 62 64 67 68 67 66 65 63 62 62 61 60 61 61 48 48 47 48 57 59 63 64 66 67 67 68
64 65 66 66 66 67 64 66 65 65 64 64 63 64 62 63 62 59 62 65 66 67 66 65 65 64 62 51 51 58 52 49 51 47 46 54 57 62 64 65 66 67 68
61 63 65 66 66 66 65 64 62 64 63 64 64 64 63 62 61 58 56 58 59 64 58 60 59 57 54 56 52 53 53 54 49 46 46 52 55 61 62 64 66 67 67
57 60 63 64 65 66 66 65 63 62 62 61 62 64 63 60 60 60 58 58 59 59 61 61 60 62 63 62 62 62 62 61 57 56 55 54 55 59 61 62 64 66 67
57 60 62 63 65 66 65 63 63 64 65 64 62 63 63 64 64 64 63 63 63 63 61 60 60 60 61 62 62 62 62 62 62 60 58 58 58 59 61 62 63 65 66
57 59 62 64 66 65 65 65 64 62 62 60 59 59 60 60 62 62 63 62 62 62 63 63 63 63 63 62 61 62 63 63 62 61 60 59 60 60 61 62 63 64 66
56 61 62 63 61 59 59 59 58 57 57 56 55 55 55 58 61 61 60 60 60 61 62 62 63 63 63 62 61 62 62 61 60 59 60 60 59 60 60 61 61 62 63
54 57 58 57 57 57 56 55 53 54 52 51 50 50 50 50 53 54 54 56 58 58 58 58 59 60 60 61 62 62 61 61 61 61 61 61 60 60 60 60 61 61 62
53 53 53 53 51 52 50 49 48 47 45 44 44 45 46 47 49 50 50 52 52 51 52 51 52 56 58 57 56 55 58 59 60 60 61 61 61 61 61 61 61 61 61
51 47 48 48 48 46 46 45 45 45 44 42 41 42 43 42 44 43 44 45 44 44 43 45 48 49 51 48 45 46 50 51 52 56 59 59 58 60 60 61 61 60 60
50 46 44 45 44 43 42 42 40 38 39 38 38 39 40 40 40 40 38 39 39 40 41 41 41 40 41 43 40 36 38 44 49 57 53 52 55 51 53 51 52 51 51
47 47 43 41 41 40 38 38 37 37 36 36 37 37 37 38 38 37 38 37 38 36 39 39 40 36 35 41 41 36 30 31 46 34 44 43 43 39 37 34 38 38 39
37 41 42 42 40 38 38 37 36 35 33 31 32 33 36 36 37 38 38 39 38 37 37 38 39 38 35 37 42 38 32 30 34 35 34 37 35 37 34 34 34 35 36
31 33 35 36 37 36 34 33 32 29 29 31 31 33 34 36 37 38 39 40 40 39 40 38 40 39 39 37 38 36 40 39 34 35 33 31 35 34 35 35 35 38 37
30 31 32 32 33 34 34 33 30 30 30 30 32 33 35 36 37 37 39 39 39 39 41 41 41 41 39 38 37 36 36 35 35 34 31 32 34 34 34 35 38 36 36
30 31 31 30 31 32 32 33 32 31 29 29 30 30 31 32 34 37 38 39 39 39 40 40 40 40 39 38 38 36 36 35 35 35 34 34 34 33 34 36 35 35 36

GFSSE_sfc_30mbdewp_279.txt.gz
Dewpoint
56 64 70 70 70 70 71 72 71 70 70 70 70 70 69 68 68 69 67 68 68 69 69 69 68 67 66 66 67 68 68 68 68 69 69 69 68 67 66 66 66 60 66
58 62 70 70 70 71 71 72 71 70 71 70 70 70 70 69 69 69 68 68 68 69 67 67 67 67 68 67 65 65 65 65 66 67 68 68 68 67 66 67 64 64 66
58 63 65 70 70 71 71 71 71 71 71 71 71 70 70 69 69 69 69 68 68 68 68 67 66 67 68 69 69 69 69 68 64 63 66 54 58 66 65 65 68 68 66
59 60 63 70 70 70 71 71 71 71 70 70 70 70 69 69 68 68 67 67 66 67 67 66 66 67 68 68 68 67 66 67 66 66 62 50 50 63 64 64 68 67 67
58 60 66 70 70 71 71 71 71 71 71 70 70 69 69 68 67 67 67 66 64 66 66 65 66 66 67 65 65 65 63 62 62 62 50 53 54 63 64 64 64 67 67
58 62 68 70 70 70 70 70 70 69 69 70 70 69 69 68 68 67 68 65 63 64 66 66 66 65 65 65 64 61 59 60 60 58 51 49 56 62 64 65 64 65 66
59 64 65 69 70 70 70 70 69 69 70 70 70 69 69 68 68 68 69 67 65 64 65 66 65 65 65 65 62 59 59 60 59 51 54 55 59 61 64 65 66 65 65
60 63 65 69 70 70 69 69 69 69 69 69 69 69 69 69 68 68 69 68 67 65 65 64 64 64 63 61 59 59 60 61 57 52 53 57 63 62 63 66 67 67 66
60 63 64 65 67 69 68 68 68 69 69 69 68 68 68 68 69 68 68 68 67 65 64 63 62 61 61 60 59 59 60 61 56 53 52 56 62 62 63 63 65 68 67
67 65 65 66 64 64 65 68 68 68 68 68 68 67 67 67 67 67 67 67 66 66 65 64 63 62 61 61 60 59 60 58 54 50 47 59 60 61 64 65 66 66 68
66 67 67 66 66 66 65 66 67 67 67 67 66 65 65 64 62 63 63 67 67 66 65 64 63 62 62 60 58 58 58 46 44 44 43 58 59 60 64 65 66 67 67
63 64 65 67 66 65 64 64 66 63 64 63 62 62 59 60 59 55 60 64 65 66 65 65 64 63 62 51 52 58 56 48 48 45 43 56 55 57 61 64 65 66 66
59 61 64 66 66 63 59 59 58 59 60 61 61 61 61 59 60 57 56 60 61 63 58 62 61 61 53 54 51 52 52 54 51 49 49 52 52 55 59 63 65 66 66
56 59 62 64 66 66 62 60 58 56 57 57 59 62 60 58 58 57 54 55 57 55 57 57 55 57 59 59 59 59 58 58 55 54 54 54 55 56 59 62 64 65 66
52 55 58 60 65 66 63 58 59 63 63 63 60 63 63 63 62 59 58 57 57 57 57 57 56 56 57 57 57 58 58 58 58 58 56 57 57 58 60 62 64 65 66
55 57 62 61 65 64 66 65 65 64 64 61 60 61 61 61 63 60 60 60 60 60 62 61 61 61 59 58 57 58 58 58 58 58 56 56 59 59 60 62 63 65 65
59 61 64 64 64 64 63 62 61 61 60 59 57 57 57 58 60 61 60 61 61 61 61 61 61 61 61 61 61 62 62 61 61 61 61 60 58 60 60 61 63 64 65
59 60 60 60 60 60 59 58 58 58 56 54 53 53 55 55 57 57 57 57 57 57 56 56 56 59 59 61 61 60 59 59 59 61 62 62 65 64 64 63 61 62 63
57 57 56 57 57 56 55 55 53 52 50 47 46 47 49 49 51 52 52 51 51 50 49 49 50 52 52 52 48 46 47 49 52 53 53 61 59 61 59 57 55 58 55
54 53 52 51 50 50 49 48 47 47 46 46 44 45 45 44 45 45 45 46 44 43 41 42 43 42 43 42 40 36 39 38 41 53 54 50 53 50 47 44 40 42 42
51 49 49 48 46 46 46 44 43 44 44 43 42 41 41 41 41 41 39 38 38 40 40 41 40 36 34 41 38 33 34 38 44 40 38 42 40 39 40 36 36 36 36
51 48 47 46 45 45 45 45 44 41 40 40 39 39 38 39 39 38 39 38 39 37 40 41 41 38 35 40 38 35 29 32 36 36 40 40 38 38 35 36 37 37 38
51 48 45 43 42 41 42 41 40 39 37 35 34 35 37 37 38 40 40 41 39 39 39 40 42 40 37 37 39 36 32 31 35 37 37 35 39 36 36 36 37 37 40
45 48 48 45 43 42 41 40 38 35 33 33 33 35 36 38 38 39 41 41 41 41 42 41 42 41 40 37 38 37 40 38 35 34 34 33 36 35 37 37 37 39 38
37 39 40 40 38 38 38 37 35 33 33 32 34 35 37 38 38 39 40 41 41 41 42 42 42 41 39 38 37 36 36 35 35 34 33 33 32 33 34 35 38 37 37
31 34 35 34 35 35 34 34 33 32 30 31 32 32 32 34 37 39 39 41 41 41 41 41 41 41 41 40 39 37 36 35 34 34 33 32 32 32 34 35 35 36 37

GFSSE_sfc_30mbdewp_282.txt.gz
Dewpoint
62 67 70 70 71 71 71 71 69 69 71 71 70 69 68 69 68 68 68 66 67 68 69 69 68 66 65 66 67 68 68 69 70 70 70 68 66 66 67 68 67 64 66
63 67 70 70 71 72 71 70 70 70 71 70 70 70 69 69 69 67 67 68 68 68 68 68 67 67 64 64 66 65 65 66 68 69 68 68 67 66 67 67 63 66 66
63 66 68 70 71 71 70 70 71 71 71 71 70 70 70 69 69 69 68 68 68 68 67 66 67 68 69 69 69 69 67 63 63 69 68 62 65 65 64 68 68 67 66
61 64 67 70 71 71 71 70 71 71 71 70 70 70 69 69 68 68 67 67 68 67 66 66 66 68 68 68 67 66 65 65 66 66 65 61 54 63 62 66 67 67 67
60 64 69 70 71 71 70 71 71 71 71 70 70 69 69 68 68 67 66 66 67 66 65 65 66 67 66 65 64 63 61 61 62 61 60 56 55 62 63 62 65 67 66
62 65 69 70 71 70 70 70 70 70 70 70 69 69 68 68 68 68 66 65 65 66 65 65 66 65 65 65 63 61 60 60 60 59 51 54 58 64 64 64 64 65 66
63 65 68 70 70 70 70 70 70 70 70 70 70 69 69 68 69 69 67 66 65 66 66 66 65 64 64 64 61 59 59 60 59 56 53 59 61 63 63 64 64 64 64
63 64 65 69 70 70 69 69 69 69 69 69 69 69 69 68 68 69 68 67 66 65 65 65 64 64 63 61 60 59 58 58 56 54 56 62 62 63 64 65 66 66 66
64 64 65 66 68 68 68 68 69 69 69 68 68 68 68 68 68 68 68 67 65 64 64 63 62 61 60 60 59 58 58 56 57 54 55 63 63 63 63 63 64 67 67
66 66 66 66 66 66 67 68 68 68 67 67 67 67 67 68 68 67 66 66 66 65 64 63 62 61 61 60 59 59 58 57 53 51 57 61 62 63 63 64 65 65 66
65 66 66 66 66 66 66 67 67 67 67 67 65 64 65 66 66 66 66 65 66 65 64 63 62 61 61 60 58 58 60 57 49 49 55 61 62 62 62 64 65 66 66
64 65 67 67 67 67 64 65 65 65 65 66 66 64 64 61 57 61 63 64 65 65 64 64 63 61 61 59 55 58 59 57 52 49 49 59 60 59 59 60 63 65 65
62 64 66 66 66 66 64 66 66 66 66 63 61 62 62 62 60 57 61 60 63 64 63 62 63 63 60 59 59 58 59 58 56 56 54 56 56 56 57 59 60 63 65
59 62 66 65 66 67 66 60 62 60 60 63 64 64 65 62 61 59 59 62 63 63 63 61 61 61 60 59 60 60 60 60 59 59 58 54 55 56 59 60 61 63 64
55 58 60 65 66 66 66 60 65 64 65 63 64 64 64 65 65 63 62 62 62 62 64 63 62 62 61 61 61 61 61 61 61 61 60 59 56 57 60 62 63 64 65
53 58 59 65 66 65 66 66 65 65 63 62 61 60 60 62 64 64 63 63 62 63 63 63 63 63 62 63 62 63 62 62 61 61 61 62 62 64 64 64 64 65 66
56 63 65 65 66 65 65 63 63 62 61 59 59 58 58 59 60 60 60 60 59 60 59 59 59 59 61 62 62 62 61 61 62 63 64 63 66 64 64 63 63 63 60
62 62 62 62 63 62 61 60 59 59 56 55 54 54 53 54 56 57 57 55 55 56 52 51 53 55 55 56 53 51 49 52 53 57 61 64 63 64 61 45 43 57 55
60 60 60 60 59 58 58 57 55 54 52 50 50 49 48 49 49 52 50 50 50 47 46 46 46 47 44 46 41 40 41 47 43 49 47 45 45 45 40 40 42 41 46
57 57 56 56 55 54 52 50 50 49 48 47 46 46 46 45 46 48 46 45 45 44 44 45 44 43 44 45 44 40 39 39 43 42 45 40 42 39 40 41 40 41 41
54 52 51 51 50 50 49 49 50 49 46 44 44 44 43 44 44 45 43 42 45 44 45 45 44 42 43 44 41 39 40 41 42 42 41 43 39 38 39 38 41 39 39
52 51 49 48 48 48 48 48 46 46 45 43 42 42 42 43 44 43 44 43 44 44 44 45 46 43 43 44 39 40 35 41 38 42 40 39 39 38 37 40 37 38 42
51 50 49 48 47 45 44 44 44 43 42 40 39 40 41 42 43 44 45 45 44 45 45 45 46 44 43 42 41 40 38 36 38 39 40 42 38 38 39 36 37 39 39
51 50 47 45 44 45 45 44 41 39 38 38 38 40 41 42 42 43 44 44 45 45 45 44 45 44 43 40 41 41 41 41 38 36 37 38 36 35 36 37 39 38 36
52 51 48 46 45 45 45 45 44 39 37 37 39 40 41 42 42 43 44 45 45 45 45 45 44 44 43 42 41 39 38 38 38 36 35 35 35 35 35 37 37 36 38
44 46 47 45 42 42 41 41 39 37 35 36 37 37 38 40 41 42 44 44 44 43 44 43 43 43 43 42 41 39 38 37 36 36 34 34 33 33 34 34 34 36 34

GFSSE_sfc_30mbdewp_285.txt.gz
Dewpoint
67 70 70 71 71 71 70 69 69 70 70 70 69 69 69 68 67 67 66 68 68 69 69 67 65 65 65 67 68 69 69 70 70 69 67 67 67 67 67 67 65 65 66
68 69 70 71 71 71 69 69 70 70 70 70 70 70 70 69 68 68 68 68 68 68 68 67 66 65 64 64 65 65 67 68 69 69 68 66 67 67 66 67 66 67 66
68 69 70 71 71 71 70 69 70 70 70 70 70 70 70 69 69 69 68 68 68 67 67 67 67 68 69 69 68 68 66 64 66 69 67 65 65 65 68 67 67 66 66
66 69 71 71 70 70 71 71 70 70 70 70 70 70 69 68 68 68 68 68 68 67 65 66 67 68 67 66 64 63 63 63 64 65 65 64 57 63 65 67 68 68 67
66 69 71 70 70 71 71 71 70 70 70 70 70 69 69 68 66 67 66 67 67 66 65 66 66 65 65 64 62 61 60 60 61 61 60 61 57 62 62 65 67 67 67
68 70 70 70 70 70 70 70 70 70 70 69 69 69 69 68 67 66 66 67 67 65 65 65 65 65 64 64 61 60 59 58 59 57 58 57 58 63 63 64 66 66 66
68 69 70 70 70 70 69 69 69 69 69 69 69 69 69 69 68 67 66 66 67 67 66 65 64 63 63 62 60 59 58 58 59 54 54 59 59 64 63 62 62 62 62
67 68 69 70 70 70 69 69 69 69 69 69 69 69 68 69 69 68 66 66 66 66 66 65 64 63 62 61 60 59 58 58 57 54 58 60 63 64 63 64 64 64 64
65 67 69 69 69 68 69 69 69 68 68 68 68 68 68 67 68 68 66 65 64 64 63 63 62 61 61 60 59 58 57 57 58 54 52 61 64 65 65 65 65 66 66
64 66 67 68 67 67 68 68 68 67 67 67 66 66 67 67 67 67 66 65 64 63 62 62 61 60 60 59 59 58 57 57 54 51 57 62 64 65 65 63 63 64 65
65 65 65 66 66 66 67 67 67 67 66 66 66 65 66 66 67 66 64 64 64 63 62 62 61 60 61 60 60 58 58 57 56 53 60 61 64 65 64 63 63 64 65
65 65 65 65 66 66 65 66 65 66 66 65 64 64 65 65 65 66 66 63 62 63 62 61 61 62 61 60 57 57 59 56 55 56 55 61 63 64 63 61 61 61 62
65 65 67 66 66 66 63 64 65 65 65 65 66 64 64 63 61 64 63 63 64 64 63 63 62 63 61 59 58 57 56 55 58 58 56 59 60 62 62 61 61 61 63
64 65 66 66 66 67 66 65 66 66 66 65 64 64 64 65 64 62 60 61 61 63 62 63 62 62 61 61 61 61 60 60 59 59 59 58 60 65 66 67 67 67 67
63 65 65 65 66 66 66 65 65 65 64 62 60 59 60 62 64 63 63 63 63 64 63 63 62 62 63 63 63 63 63 63 62 63 63 63 65 66 66 66 66 64 60
62 65 65 65 66 66 66 64 64 62 61 59 59 59 59 60 60 61 60 59 58 60 57 57 56 58 59 61 61 59 59 59 59 60 65 65 59 51 54 59 51 54 49
62 64 65 65 66 64 62 62 61 59 57 57 56 52 54 56 56 59 55 53 54 51 49 50 49 51 50 51 46 46 42 45 50 60 63 65 59 48 48 51 51 47 46
63 63 63 62 61 60 60 57 54 53 52 52 50 50 50 50 54 51 49 49 50 46 45 45 45 44 45 44 41 40 41 44 49 43 45 41 41 42 41 46 45 46 47
61 60 60 59 59 57 56 54 53 51 50 50 49 48 47 47 50 47 45 46 45 45 44 45 43 44 43 41 40 43 40 42 44 41 40 39 39 38 39 43 42 42 46
59 58 57 56 54 52 51 50 49 47 47 46 45 46 45 44 47 43 44 45 45 44 44 44 43 44 44 41 41 40 42 44 43 42 39 37 39 38 40 37 38 40 44
55 55 55 54 52 51 51 49 48 45 43 44 44 43 44 44 45 44 43 45 44 44 45 46 44 44 42 41 38 40 39 40 42 41 38 39 38 38 36 37 38 40 39
52 52 52 52 51 50 50 49 48 46 45 42 42 42 43 44 44 44 45 45 45 45 44 45 45 43 43 44 40 41 36 38 39 40 40 37 36 38 36 37 39 38 37
51 50 50 50 50 49 48 47 46 43 41 41 40 41 43 44 45 45 45 45 45 46 44 44 44 43 40 41 41 41 35 34 39 41 38 37 36 37 35 38 35 36 38
51 50 49 49 47 46 45 43 41 40 39 39 40 41 42 43 44 45 45 46 45 45 44 44 44 43 42 40 40 40 40 38 36 34 37 36 35 35 35 36 35 37 33
50 50 48 46 45 44 44 43 41 40 39 40 41 40 41 43 43 44 45 44 44 44 44 43 43 43 42 41 39 39 38 37 36 35 33 33 33 33 34 34 35 34 34
50 48 46 45 45 45 45 45 41 38 38 38 39 40 41 42 44 44 43 42 43 42 42 43 43 42 39 39 39 37 36 35 34 34 33 32 32 32 33 32 33 32 34

GFSSE_sfc_30mbdewp_291.txt.gz
Dewpoint
67 69 71 71 70 70 69 69 69 68 67 67 67 66 66 66 67 68 69 69 68 67 66 66 68 69 69 69 69 69 69 69 69 68 68 67 66 66 65 65 65 65 65
68 70 71 71 70 69 69 69 69 69 69 68 68 68 68 68 68 69 69 69 67 64 63 63 65 66 66 66 67 69 69 69 69 68 68 67 67 66 65 65 66 65 64
68 71 71 70 70 70 69 69 70 69 68 69 69 69 68 69 68 68 69 68 67 66 65 63 65 65 64 64 65 65 66 67 67 66 65 66 67 66 65 66 65 65 65
68 70 69 70 70 70 69 70 70 69 69 68 68 68 69 69 69 69 68 68 67 66 66 65 64 63 63 62 62 62 62 61 61 62 64 62 63 66 66 67 66 66 66
68 69 70 70 70 70 70 70 70 69 69 69 68 67 67 68 68 68 68 67 66 65 64 62 64 64 63 62 61 60 60 60 60 58 59 62 60 64 66 67 67 67 68
67 69 70 70 70 70 70 70 70 69 69 69 68 67 66 66 67 68 68 67 65 64 63 64 64 64 63 62 61 60 60 60 57 53 54 59 61 61 65 66 66 67 67
67 69 69 70 70 70 69 69 69 69 68 69 69 68 67 65 66 68 68 67 66 65 64 64 63 62 61 60 61 61 60 59 57 52 56 59 59 61 62 66 67 66 65
66 68 69 69 69 69 69 68 68 68 68 68 68 69 67 66 65 66 67 67 66 65 63 61 60 61 60 61 61 60 60 60 56 52 57 58 57 61 63 64 66 65 63
67 68 68 69 69 68 68 67 67 67 67 67 67 68 67 66 64 65 65 65 64 63 62 61 61 60 60 60 58 59 60 61 53 54 52 58 59 62 65 65 63 63 64
67 67 67 68 67 67 67 67 67 67 67 66 66 66 66 66 65 63 63 63 62 62 61 61 60 60 60 60 60 59 60 60 55 55 55 54 59 64 66 66 67 67 66
64 65 67 67 67 66 66 67 66 66 66 66 66 65 65 65 65 65 62 62 62 62 62 62 61 61 61 60 59 59 59 58 56 56 57 60 61 65 66 66 67 66 66
63 64 66 66 66 66 66 67 65 65 65 65 65 65 64 64 65 65 64 63 63 62 62 62 61 61 61 60 59 59 59 57 59 60 61 61 65 66 66 65 63 65 65
63 64 65 65 65 65 65 65 64 65 64 64 63 64 64 64 64 65 65 65 63 63 62 61 61 61 61 61 61 61 61 61 64 65 66 66 67 67 65 62 61 62 61
62 63 64 64 64 64 64 64 63 64 64 65 63 64 64 64 62 63 63 62 61 63 62 63 62 63 62 60 55 53 59 64 60 57 61 59 63 60 58 58 59 54 61
61 62 63 64 64 63 63 63 64 64 64 61 60 61 61 62 62 61 62 61 59 58 56 55 55 55 52 45 46 50 61 54 52 52 54 53 53 53 53 53 54 58 59
62 62 64 65 65 65 63 63 64 64 60 59 59 59 59 60 59 57 57 54 51 51 49 49 50 46 44 44 50 62 56 53 51 47 46 47 51 52 52 52 55 56 54
64 64 65 65 65 65 65 63 61 60 57 54 53 54 58 58 54 53 51 48 47 47 45 46 45 43 40 43 45 47 43 41 40 39 39 40 41 49 50 48 48 51 49
64 65 65 65 63 61 59 58 57 55 52 51 50 52 53 52 50 48 46 45 45 45 45 45 42 40 41 42 44 43 40 39 38 38 39 39 39 40 44 44 46 48 48
64 64 64 62 59 56 54 53 52 50 49 48 47 49 49 47 47 46 45 44 44 44 44 43 42 39 39 43 42 40 40 40 39 38 37 37 39 38 39 40 39 40 39
64 63 61 58 55 53 51 50 48 47 46 46 45 46 45 46 45 45 44 44 44 44 43 42 40 42 42 43 41 41 40 39 36 36 37 36 37 38 37 37 36 35 35
61 60 59 56 52 51 50 48 47 45 44 44 44 45 44 45 45 44 44 44 44 44 44 43 42 42 42 42 40 40 40 38 37 35 35 35 35 36 36 35 32 36 33
60 59 57 56 52 51 50 48 46 44 43 43 44 44 45 45 45 44 44 43 43 43 42 40 40 40 41 42 39 40 38 39 35 34 34 33 34 35 35 35 33 33 35
59 57 56 54 53 52 50 46 44 42 42 41 43 44 45 45 45 45 44 43 43 43 42 41 40 38 38 39 39 38 36 33 39 38 32 33 33 33 33 34 33 32 34
58 57 56 54 52 51 49 46 43 42 40 40 42 44 44 45 45 45 44 44 43 43 42 42 41 40 38 35 36 36 37 38 34 34 33 30 33 32 32 32 32 30 31
56 56 55 53 53 51 49 46 43 41 40 41 43 43 44 45 44 44 43 43 42 42 41 39 39 38 38 38 35 33 30 30 31 25 14 22 28 31 32 30 31 28 30
54 54 54 54 53 50 48 46 43 41 40 41 42 42 43 44 43 43 43 42 42 40 39 38 38 37 37 36 35 34 33 25 27 24 22 28 28 28 32 30 31 28 29